Weather reports worldwide

Advertisment
Offenbach-Wetterpark, Germany (10641): temperature & dewpoint: 18.10.2020 19:00:00 - 24.10.2020 19:00:00 (CEST)Offenbach-Wetterpark, Germany (10641): temperature 5cm & temperature -5cm: 18.10.2020 19:00:00 - 24.10.2020 19:00:00 (CEST)Offenbach-Wetterpark, Germany (10641): temperature -20cm & temperature -100cm: 18.10.2020 19:00:00 - 24.10.2020 19:00:00 (CEST)Offenbach-Wetterpark, Germany (10641): wind speed & gusts: 18.10.2020 19:00:00 - 24.10.2020 19:00:00 (CEST)Offenbach-Wetterpark, Germany (10641): wind direction: 18.10.2020 19:00:00 - 24.10.2020 19:00:00 (CEST)Offenbach-Wetterpark, Germany (10641): reduced air pressure: 18.10.2020 19:00:00 - 24.10.2020 19:00:00 (CEST)Offenbach-Wetterpark, Germany (10641): visibility: 18.10.2020 19:00:00 - 24.10.2020 19:00:00 (CEST)Offenbach-Wetterpark, Germany (10641): sunshine duration: 18.10.2020 19:00:00 - 24.10.2020 19:00:00 (CEST)Offenbach-Wetterpark, Germany (10641): precipitation: 18.10.2020 19:00:00 - 24.10.2020 19:00:00 (CEST)
Date & Time tt [°C] td [°C] tt 5cm [°C] tt -5cm [°C] tt -20cm [°C] tt -100cm [°C] ff [km/h] ff [kn] fx [km/h] fx [kn] dd ppp [hPa] vv [km] sd [min] rr [mm]
24.10.2020 19:00:00 14,5 8,4 13,7 13,8 13,3 13,5 10 5 24 13 S 1015,0 71 0 0,0
24.10.2020 18:00:00 14,6 8,3 13,8 14,4 13,2 13,4 10 5 30 16 SW 1015,4 65 0 0,0
24.10.2020 17:00:00 14,9 8,1 14,7 15,0 13,0 13,4 13 7 44 24 SW 1015,7 73 39 0,0
24.10.2020 16:00:00 15,5 8,5 16,6 15,5 12,8 13,4 24 13 42 23 WSW 1015,8 66 47 0,0
24.10.2020 15:00:00 16,5 9,2 19,2 15,2 12,6 13,4 14 8 35 19 SW 1015,7 61 44 0,0
24.10.2020 14:00:00 16,2 9,8 18,7 14,3 12,4 13,4 20 11 37 20 WSW 1016,4 51 44 0,0
24.10.2020 13:00:00 15,0 10,9 16,0 13,6 12,3 13,4 14 8 32 17 SW 1016,9 46 5 0,0
24.10.2020 12:00:00 14,8 10,8 15,2 13,1 12,1 13,4 16 8 33 18 SW 1016,6 65 34 0,0
24.10.2020 11:00:00 14,3 10,5 14,1 11,9 12,1 13,4 12 6 24 13 SW 1016,6 37 25 0,0
24.10.2020 10:00:00 13,2 10,9 12,2 11,2 12,1 13,4 10 5 22 12 SSW 1016,6 41 0 0,0
24.10.2020 09:00:00 12,7 10,8 11,4 10,7 12,2 13,4 11 6 28 15 SW 1016,2 32 0 0,0
24.10.2020 08:00:00 11,8 10,5 10,2 10,4 12,3 13,4 10 5 20 11 SW 1015,7 24 0 0,0
24.10.2020 07:00:00 11,0 10,4 8,7 10,5 12,5 13,4 7 4 17 9 SSW 1015,7 14 0 0,0
24.10.2020 06:00:00 11,4 10,6 9,0 10,7 12,6 13,4 8 4 16 9 WSW 1015,8 10 0 0,0
24.10.2020 05:00:00 11,6 11,0 8,8 10,9 12,7 13,4 7 4 18 10 SW 1015,5 14 0 0,0
24.10.2020 04:00:00 12,0 11,5 10,0 11,2 12,9 13,3 5 3 11 6 SW 1015,3 9 0 0,0
24.10.2020 03:00:00 11,4 10,9 8,5 11,6 13,0 13,3 5 3 11 6 SW 1015,0 0,5 0 0,0
24.10.2020 02:00:00 12,7 12,0 10,7 12,0 13,1 13,3 6 3 24 13 SW 1014,6 12 0 0,0
24.10.2020 01:00:00 13,1 12,4 11,1 12,4 13,2 13,3 9 5 19 10 SW 1014,2 11 0 0,0
24.10.2020 00:00:00 13,6 12,7 12,0 12,7 13,3 13,3 10 5 18 10 WSW 1014,2 13 0 0,0
23.10.2020 23:00:00 13,7 12,8 11,9 12,9 13,3 13,3 10 5 27 15 WSW 1013,7 15 0 0,0
23.10.2020 22:00:00 13,9 13,1 12,8 13,2 13,4 13,3 11 6 23 13 SW 1013,2 10 0 0,0
23.10.2020 21:00:00 13,9 13,1 12,6 13,6 13,4 13,3 10 5 21 12 WSW 1012,9 12 0 0,0
23.10.2020 20:00:00 14,1 13,2 13,2 13,9 13,4 13,3 5 3 16 9 SW 1012,5 18 0 0,0
23.10.2020 19:00:00 14,4 13,4 13,3 14,2 13,4 13,3 5 3 14 7 SSW 1012,3 21 0 0,0
23.10.2020 18:00:00 14,8 13,6 14,0 14,6 13,3 13,2 7 4 17 9 SSW 1012,1 26 0 0,0
23.10.2020 17:00:00 15,3 13,8 14,6 14,8 13,2 13,2 7 4 14 7 SSW 1011,6 28 0 0,0
23.10.2020 16:00:00 15,2 13,9 15,0 14,5 13,2 13,2 6 3 22 12 SW 1011,8 20 0 0,4
23.10.2020 15:00:00 15,0 13,7 14,7 14,4 13,1 13,2 8 4 17 9 SW 1012,1 23 0 0,2
23.10.2020 14:00:00 15,2 13,8 14,9 14,4 13,0 13,2 8 5 19 10 S 1012,0 23 0 0,4
23.10.2020 13:00:00 15,5 13,5 14,9 14,1 13,0 13,2 8 5 19 10 S 1012,5 37 0 0,3
23.10.2020 12:00:00 15,4 12,6 14,9 13,6 13,0 13,2 10 5 22 12 SSW 1012,7 43 0 0,0
23.10.2020 11:00:00 15,2 12,7 14,6 13,5 13,0 13,2 7 4 16 9 SSW 1012,9 37 0 0,0
23.10.2020 10:00:00 15,2 12,5 14,7 13,5 13,0 13,2 8 5 22 12 S 1013,1 30 0 0,0
23.10.2020 09:00:00 15,1 12,4 14,6 13,4 13,0 13,2 10 5 21 12 S 1013,0 35 0 0,0
23.10.2020 08:00:00 15,2 12,6 14,4 13,3 13,0 13,1 9 5 19 11 S 1012,9 34 0 0,0
23.10.2020 07:00:00 15,1 12,7 14,5 13,3 13,0 13,1 7 4 21 11 SSW 1013,3 34 0 0,0
23.10.2020 06:00:00 14,9 13,0 14,2 13,3 13,0 13,1 9 5 18 10 S 1013,6 29 0 0,0
23.10.2020 05:00:00 15,0 13,2 14,2 13,3 13,0 13,1 9 5 16 9 SSW 1013,8 30 0 0,0
23.10.2020 04:00:00 14,9 13,2 13,9 13,3 13,1 13,1 9 5 18 10 S 1014,3 20 0 0,0
23.10.2020 03:00:00 15,0 13,1 13,9 13,3 13,1 13,1 9 5 16 9 S 1014,6 28 0 0,0
23.10.2020 02:00:00 14,5 13,2 12,8 13,5 13,1 13,1 6 3 13 7 SSW 1014,5 25 0 0,0
23.10.2020 01:00:00 15,4 13,3 14,0 13,7 13,1 13,1 8 4 18 10 SSW 1014,5 28 0 0,1
23.10.2020 00:00:00 16,0 12,8 14,3 13,9 13,2 13,1 8 4 22 12 S 1014,8 34 0 0,1
22.10.2020 23:00:00 17,0 13,0 15,0 14,0 13,2 13,1 6 3 17 9 SW 1014,9 25 0 0,0
22.10.2020 22:00:00 17,5 12,9 16,1 14,2 13,2 13,1 10 5 29 15 SW 1014,7 37 0 0,0
22.10.2020 21:00:00 17,8 12,8 16,3 14,3 13,2 13,1 11 6 27 15 SSW 1014,1 36 0 0,0
22.10.2020 20:00:00 17,3 12,2 14,6 14,5 13,2 13,1 7 4 16 8 SSW 1014,1 14 0 0,0
22.10.2020 19:00:00 18,2 11,4 16,3 15,0 13,1 13,1 8 4 16 9 S 1014,0 33 0 0,0
22.10.2020 18:00:00 19,0 11,1 17,6 15,6 12,9 13,0 11 6 20 11 S 1013,5 35 0 0,0
22.10.2020 17:00:00 19,8 11,1 18,9 16,2 12,7 13,0 8 4 24 13 S 1013,5 40 22 0,0
22.10.2020 16:00:00 20,5 11,0 21,5 16,5 12,3 13,0 11 6 28 15 SSW 1013,4 31 46 0,0
22.10.2020 15:00:00 21,0 10,6 23,2 16,4 12,0 13,0 12 6 31 17 SW 1014,2 35 60 0,0
22.10.2020 14:00:00 20,4 10,4 22,3 15,5 11,7 13,0 11 6 23 12 SSW 1014,4 55 58 0,0
22.10.2020 13:00:00 18,8 10,7 19,5 13,7 11,6 13,0 11 6 32 17 SW 1015,2 19 50 0,0
22.10.2020 12:00:00 18,1 10,5 18,3 12,6 11,4 13,0 12 6 29 16 SSW 1015,5 44 15 0,0
22.10.2020 11:00:00 16,8 10,7 15,9 12,1 11,4 13,0 9 5 22 12 SSW 1015,4 29 9 0,0
22.10.2020 10:00:00 16,5 9,9 15,3 11,3 11,3 13,0 9 5 23 12 SSW 1015,2 46 0 0,0
22.10.2020 09:00:00 16,2 9,7 14,7 10,9 11,4 13,0 14 7 25 14 SSW 1014,3 44 0 0,0
22.10.2020 08:00:00 14,2 9,8 11,5 10,9 11,4 13,0 6 4 17 9 SSW 1013,5 41 0 0,0
22.10.2020 07:00:00 15,8 9,8 13,4 11,0 11,3 13,0 10 6 28 15 SSW 1013,3 45 0 0,0
22.10.2020 06:00:00 15,8 9,8 14,0 10,8 11,4 13,0 10 6 25 13 SSW 1013,0 43 0 0,0
22.10.2020 05:00:00 15,0 9,9 11,5 10,6 11,4 13,0 8 4 17 9 SW 1013,0 40 0 0,0
22.10.2020 04:00:00 16,0 9,9 13,0 10,6 11,4 13,0 10 5 23 12 S 1012,6 48 0 0,0
22.10.2020 03:00:00 16,0 9,6 12,7 10,5 11,5 13,0 10 6 23 12 SSW 1012,7 45 0 0,0
22.10.2020 02:00:00 15,1 9,7 11,3 10,4 11,6 13,0 8 4 24 13 SSW 1012,5 40 0 0,0
22.10.2020 01:00:00 12,6 8,9 9,4 10,4 11,7 13,0 4 2 17 9 SSW 1012,2 38 0 0,0
22.10.2020 00:00:00 11,0 9,1 8,2 10,4 11,8 13,0 11 6 16 9 S 1011,6 40 0 0,0
21.10.2020 23:00:00 10,0 8,7 7,3 10,7 11,9 13,0 3 2 5 3 S 1011,5 32 0 0,0
21.10.2020 22:00:00 10,5 8,7 7,5 11,2 12,0 13,0 2 1 5 3 SE 1010,8 36 0 0,0
21.10.2020 21:00:00 11,3 8,9 7,8 11,7 12,1 13,0 3 1 7 4 SSE 1010,2 37 0 0,0
21.10.2020 20:00:00 12,4 9,5 8,7 12,3 12,1 13,0 5 3 9 5 SE 1009,5 35 0 0,0
21.10.2020 19:00:00 14,3 8,7 10,2 13,1 12,1 13,0 4 2 10 6 NE 1008,7 52 0 0,0
21.10.2020 18:00:00 16,4 9,5 13,7 13,8 11,9 13,0 4 2 17 9 S 1008,0 46 24 0,0
21.10.2020 17:00:00 19,1 7,4 17,4 14,3 11,7 13,0 9 5 22 12 S 1007,8 64 46 0,0
21.10.2020 16:00:00 18,5 9,3 18,5 14,5 11,5 13,0 9 5 17 9 SSE 1008,2 54 47 0,0
21.10.2020 15:00:00 17,5 9,8 18,5 13,8 11,3 13,0 8 4 18 10 SSE 1008,4 49 40 0,0
21.10.2020 14:00:00 15,6 9,1 15,5 13,4 11,1 13,0 12 6 19 10 SSE 1009,2 40 9 0,0
21.10.2020 13:00:00 15,2 8,9 16,0 12,5 11,0 13,0 11 6 19 10 SE 1009,5 41 2 0,0
21.10.2020 12:00:00 13,7 9,6 13,5 11,9 10,9 13,0 5 3 16 8 SSE 1010,0 46 1 0,0
21.10.2020 11:00:00 13,2 9,8 13,2 11,3 10,8 13,0 3 2 11 6 SSW 1010,1 41 0 0,0
21.10.2020 10:00:00 12,1 9,3 11,5 10,6 10,8 13,0 6 3 10 6 SSE 1009,8 41 0 0,0
21.10.2020 09:00:00 11,3 8,7 10,0 10,3 10,8 13,0 8 4 19 10 SSE 1009,2 38 0 0,0
21.10.2020 08:00:00 11,0 8,9 10,0 10,2 10,8 13,0 8 4 13 7 ESE 1009,1 36 0 0,0
21.10.2020 07:00:00 10,8 9,3 9,8 10,1 10,9 13,0 9 5 16 9 SSE 1009,6 32 0 0,0
21.10.2020 06:00:00 9,7 9,3 8,9 10,2 10,9 13,0 3 1 5 3 SE 1009,7 4,3 0 0,0
21.10.2020 05:00:00 10,0 9,5 9,1 10,4 10,9 13,0 2 1 5 3 E 1009,7 7 0 0,0
21.10.2020 04:00:00 10,1 9,5 9,5 10,5 10,9 13,0 3 2 7 4 NNW 1010,1 11 0 0,0
21.10.2020 03:00:00 10,5 9,6 10,0 10,6 10,9 13,0 4 2 13 7 SSW 1010,6 17 0 0,0
21.10.2020 02:00:00 10,6 9,9 9,9 10,6 10,9 13,0 2 1 4 2 E 1011,1 13 0 0,1
21.10.2020 01:00:00 11,2 9,5 10,0 10,7 10,9 13,0 2 1 16 9 SE 1011,1 39 0 0,0
21.10.2020 00:00:00 11,7 9,5 10,4 10,7 10,9 13,0 9 5 14 8 SE 1011,5 35 0 0,0
20.10.2020 23:00:00 11,0 9,5 10,0 10,8 10,9 13,0 5 3 11 6 SE 1012,3 31 0 0,1
20.10.2020 22:00:00 10,5 9,7 9,8 10,9 10,9 13,1 2 1 8 5 S 1013,0 13 0 0,0
20.10.2020 21:00:00 11,1 9,6 10,1 11,1 10,9 13,1 7 4 12 7 E 1013,1 20 0 0,0
20.10.2020 20:00:00 10,6 10,0 10,3 11,3 10,9 13,1 4 2 4 2 E 1014,5 6 0 0,3
20.10.2020 19:00:00 10,9 9,6 10,2 11,6 10,8 13,1 3 1 4 2 NNW 1014,0 17 0 0,0
20.10.2020 18:00:00 11,5 9,5 10,7 12,0 10,6 13,1 4 2 6 3 WNW 1014,0 27 0 0,0
20.10.2020 17:00:00 13,0 8,5 12,3 12,4 10,4 13,1 3 1 10 6 W 1013,9 33 0 0,0
20.10.2020 16:00:00 14,5 7,0 14,4 12,6 10,1 13,1 6 3 11 6 S 1013,9 39 0 0,0
20.10.2020 15:00:00 14,1 5,8 14,6 12,1 9,8 13,1 6 3 13 7 SSW 1014,1 50 0 0,0
20.10.2020 14:00:00 13,9 5,5 14,5 11,8 9,5 13,1 7 4 16 9 S 1014,7 57 18 0,0
20.10.2020 13:00:00 12,5 6,0 15,0 10,6 9,3 13,1 4 2 9 5 SW 1015,3 41 53 0,0
20.10.2020 12:00:00 10,4 5,3 14,5 8,7 9,2 13,1 4 2 10 5 S 1015,7 49 42 0,0
20.10.2020 11:00:00 7,5 4,2 7,5 7,2 9,2 13,1 3 2 8 4 SE 1015,5 22 13 0,0
20.10.2020 10:00:00 5,4 3,3 5,2 6,3 9,3 13,1 4 2 8 4 SSE 1016,0 18 5 0,0
20.10.2020 09:00:00 3,0 2,4 2,6 5,7 9,4 13,2 3 1 9 5 E 1016,4 7 0 0,0
20.10.2020 08:00:00 2,4 1,7 0,6 5,8 9,6 13,2 4 2 12 6 SSE 1015,9 7 0 0,0
20.10.2020 07:00:00 2,5 1,9 0,2 6,0 9,7 13,2 3 1 10 6 WSW 1016,6 8 0 0,0
20.10.2020 06:00:00 3,7 2,7 1,2 6,2 9,9 13,2 7 4 12 7 SE 1016,6 13 0 0,0
20.10.2020 05:00:00 3,7 2,2 1,3 6,5 10,0 13,2 6 3 12 7 SE 1016,8 14 0 0,0
20.10.2020 04:00:00 4,0 2,4 0,7 6,9 10,2 13,2 5 3 14 7 ESE 1017,4 17 0 0,0
20.10.2020 03:00:00 5,7 2,7 3,5 7,3 10,3 13,2 9 5 22 12 SE 1017,9 30 0 0,0
20.10.2020 02:00:00 6,5 2,7 4,7 7,5 10,5 13,2 12 7 26 14 SE 1018,3 34 0 0,0
20.10.2020 01:00:00 7,1 2,8 5,4 7,8 10,7 13,2 14 8 26 14 SE 1018,6 36 0 0,0
20.10.2020 00:00:00 6,9 3,1 4,6 8,0 10,8 13,2 13 7 23 12 SE 1019,4 43 0 0,0
19.10.2020 23:00:00 6,0 4,4 3,5 8,3 11,0 13,2 8 4 13 7 SE 1020,5 19 0 0,0
19.10.2020 22:00:00 6,7 5,1 4,2 8,8 11,2 13,2 8 4 13 7 SSE 1021,0 18 0 0,0
19.10.2020 21:00:00 6,3 5,2 2,8 9,5 11,3 13,2 5 3 10 6 SE 1021,3 14 0 0,0
19.10.2020 20:00:00 7,4 5,6 4,0 10,4 11,4 13,2 5 3 9 5 SE 1021,2 20 0 0,0
19.10.2020 19:00:00 9,0 5,6 5,5 11,2 11,4 13,2 4 2 12 7 SSE 1021,1 26 0 0,0
19.10.2020 18:00:00 11,8 5,6 11,0 12,1 11,3 13,2 7 4 13 7 SE 1021,2 29 27 0,0
19.10.2020 17:00:00 12,2 5,7 12,1 12,5 11,1 13,2 7 4 14 8 SE 1021,7 33 7 0,0
19.10.2020 16:00:00 12,8 6,0 15,2 12,7 10,9 13,2 5 3 13 7 ESE 1021,9 23 21 0,0
19.10.2020 15:00:00 12,1 5,8 13,4 12,7 10,7 13,2 7 4 13 7 S 1022,4 26 8 0,0
19.10.2020 14:00:00 12,0 6,0 13,5 12,3 10,5 13,3 7 4 12 7 SSW 1023,2 21 0 0,0
19.10.2020 13:00:00 11,3 6,2 12,9 11,6 10,3 13,3 7 4 13 7 SSW 1023,6 18 1 0,0
19.10.2020 12:00:00 11,0 6,0 12,4 10,7 10,2 13,3 4 2 11 6 S 1024,0 16 10 0,0
19.10.2020 11:00:00 9,4 5,9 10,5 9,6 10,2 13,3 5 3 8 5 SSE 1024,1 18 0 0,0
19.10.2020 10:00:00 8,1 6,0 8,2 8,9 10,2 13,3 5 3 7 4 SSE 1024,2 16 0 0,0
19.10.2020 09:00:00 7,3 5,7 7,0 8,7 10,3 13,3 4 2 8 4 S 1024,0 12 0 0,0
19.10.2020 08:00:00 7,0 5,7 6,3 8,7 10,3 13,3 3 2 7 4 ESE 1023,8 9 0 0,0
19.10.2020 07:00:00 7,0 5,8 6,3 8,8 10,4 13,3 0 0 5 3 N 1023,8 8 0 0,0
19.10.2020 06:00:00 7,1 5,9 6,3 8,8 10,4 13,3 0 0 5 3 N 1023,7 9 0 0,0
19.10.2020 05:00:00 7,3 5,8 6,5 8,9 10,5 13,3 2 1 6 3 NE 1023,6 10 0 0,0
19.10.2020 04:00:00 7,7 5,6 6,8 9,0 10,5 13,3 5 3 7 4 SSE 1023,6 14 0 0,0
19.10.2020 03:00:00 7,5 5,7 6,7 9,1 10,6 13,3 3 2 6 3 SE 1023,9 14 0 0,0
19.10.2020 02:00:00 8,2 5,5 7,4 9,2 10,6 13,4 6 3 10 5 S 1024,0 17 0 0,0
19.10.2020 01:00:00 8,0 5,9 7,1 9,3 10,7 13,4 4 2 9 5 SSW 1023,9 15 0 0,0
19.10.2020 00:00:00 7,9 5,7 7,2 9,4 10,7 13,4 6 3 9 5 S 1023,9 15 0 0,0
18.10.2020 23:00:00 8,2 5,5 7,3 9,6 10,8 13,4 5 3 8 4 S 1023,9 18 0 0,0
18.10.2020 22:00:00 8,0 6,2 7,2 9,8 10,8 13,4 3 2 6 4 SSE 1023,7 14 0 0,0
18.10.2020 21:00:00 8,4 5,9 7,5 10,0 10,8 13,4 3 1 6 3 WSW 1023,6 14 0 0,0
18.10.2020 20:00:00 8,6 6,2 7,6 10,2 10,8 13,4 3 1 11 6 SW 1023,6 15 0 0,0
18.10.2020 19:00:00 8,8 6,4 7,6 10,7 10,8 13,4 4 2 6 3 SE 1023,0 16 0 0,0

tt = temperature
td = dewpoint
tt 5cm = temperature 5cm
tt -5cm = temperature -5cm
tt -20cm = temperature -20cm
tt -100cm = temperature -100cm
ff = wind speed
fx = gusts
dd = wind direction
ppp = reduced air pressure
vv = visibility
sd = sunshine duration
rr = precipitation

Next stations